| time (UTC) | temp C | wind direction | speed KPH | gust KPH | rain 1hr cm | rain 24hr cm | rain mn cm | humidity % | barometer mb |
| 20260901031532 | 14 | 176 | 9.7 | 12.9 | 0.00 | 0.00 | 0.00 | 70 | 1011.2 |
| 20260901030034 | 15 | 171 | 8.0 | 12.9 | 0.00 | 0.00 | 0.00 | 70 | 1011.3 |
| 20260901024534 | 15 | 168 | 8.0 | 11.3 | 0.00 | 0.00 | 0.00 | 71 | 1011.1 |
| 20260901023106 | 15 | 166 | 8.0 | 11.3 | 0.00 | 0.00 | 0.00 | 72 | 1011.0 |
| 20260901020036 | 15 | 138 | 6.4 | 8.0 | 0.00 | 0.00 | 0.00 | 72 | 1011.0 |
| 20260901014535 | 16 | 162 | 4.8 | 6.4 | 0.00 | 0.00 | 0.00 | 66 | 1011.0 |
| 20260901013031 | 18 | 188 | 3.2 | 4.8 | 0.00 | 0.00 | 0.00 | 59 | 1010.9 |
| 20260901011530 | 20 | 254 | 3.2 | 6.4 | 0.00 | 0.00 | 0.00 | 57 | 1011.0 |
| 20260901004534 | 22 | 250 | 3.2 | 9.7 | 0.00 | 0.00 | 0.00 | 50 | 1011.1 |
| 20260901003037 | 22 | 243 | 3.2 | 9.7 | 0.00 | 0.00 | 0.00 | 48 | 1011.0 |
| 20260901001529 | 23 | 239 | 3.2 | 11.3 | 0.00 | 0.00 | 0.00 | 46 | 1011.1 |
| 20260901000107 | 23 | 245 | 4.8 | 14.5 | 0.00 | 0.00 | 0.00 | 44 | 1011.3 |
| 20260831234605 | 23 | 243 | 3.2 | 12.9 | 0.00 | 0.00 | 0.00 | 43 | 1011.3 |
| 20260831233031 | 24 | 255 | 4.8 | 11.3 | 0.00 | 0.00 | 0.00 | 44 | 1011.4 |
| 20260831231536 | 24 | 254 | 4.8 | 11.3 | 0.00 | 0.00 | 0.00 | 44 | 1011.6 |
| 20260831230037 | 24 | 247 | 4.8 | 11.3 | 0.00 | 0.00 | 0.00 | 43 | 1011.7 |
| 20260831224532 | 24 | 259 | 4.8 | 12.9 | 0.00 | 0.00 | 0.00 | 42 | 1011.9 |
| 20260831223105 | 24 | 268 | 6.4 | 19.3 | 0.00 | 0.00 | 0.00 | 42 | 1012.0 |
| 20260831220032 | 25 | 267 | 6.4 | 16.1 | 0.00 | 0.00 | 0.00 | 43 | 1012.3 |
| 20260831214535 | 25 | 260 | 6.4 | 16.1 | 0.00 | 0.00 | 0.00 | 43 | 1012.6 |
| 20260831213033 | 25 | 256 | 6.4 | 14.5 | 0.00 | 0.00 | 0.00 | 43 | 1012.7 |
| 20260831211532 | 25 | 269 | 6.4 | 14.5 | 0.00 | 0.00 | 0.00 | 43 | 1012.8 |
| 20260831210034 | 25 | 251 | 6.4 | 17.7 | 0.00 | 0.00 | 0.00 | 44 | 1012.9 |
| 20260831204648 | 24 | 254 | 6.4 | 16.1 | 0.00 | 0.00 | 0.00 | 45 | 1013.0 |
| 20260831201537 | 24 | 245 | 6.4 | 16.1 | 0.00 | 0.00 | 0.00 | 46 | 1013.5 |
| 20260831200044 | 24 | 268 | 6.4 | 19.3 | 0.00 | 0.00 | 0.00 | 47 | 1013.8 |
| 20260831194532 | 23 | 256 | 4.8 | 14.5 | 0.00 | 0.00 | 0.00 | 49 | 1013.9 |
| 20260831193104 | 22 | 265 | 4.8 | 14.5 | 0.00 | 0.00 | 0.00 | 50 | 1014.1 |
| 20260831191536 | 22 | 257 | 6.4 | 14.5 | 0.00 | 0.00 | 0.00 | 52 | 1014.4 |
| 20260831190032 | 22 | 249 | 6.4 | 12.9 | 0.00 | 0.00 | 0.00 | 54 | 1014.6 |
| 20260831184530 | 21 | 267 | 4.8 | 12.9 | 0.00 | 0.00 | 0.00 | 56 | 1014.8 |
| 20260831181531 | 20 | 310 | 4.8 | 12.9 | 0.00 | 0.00 | 0.00 | 58 | 1015.2 |
| 20260831180105 | 20 | 311 | 4.8 | 12.9 | 0.00 | 0.00 | 0.00 | 59 | 1015.4 |
| 20260831164536 | 18 | 287 | 3.2 | 9.7 | 0.00 | 0.00 | 0.00 | 64 | 1016.0 |
| 20260831161532 | 17 | 319 | 3.2 | 6.4 | 0.00 | 0.00 | 0.00 | 66 | 1016.1 |
| 20260831160034 | 17 | 286 | 1.6 | 6.4 | 0.00 | 0.00 | 0.00 | 68 | 1016.2 |
| 20260831154532 | 17 | 273 | 0.0 | 4.8 | 0.00 | 0.00 | 0.00 | 72 | 1016.2 |
| 20260831153035 | 17 | 181 | 0.0 | 3.2 | 0.00 | 0.00 | 0.00 | 78 | 1016.2 |
| 20260831151530 | 15 | 157 | 0.0 | 1.6 | 0.00 | 0.00 | 0.00 | 86 | 1016.2 |
| 20260831150038 | 12 | 157 | 1.6 | 4.8 | 0.00 | 0.00 | 0.00 | 89 | 1016.2 |
| 20260831144534 | 9 | 157 | 3.2 | 4.8 | 0.00 | 0.00 | 0.00 | 90 | 1016.1 |
| 20260831141532 | 6 | 180 | 4.8 | 8.0 | 0.00 | 0.00 | 0.00 | 90 | 1016.0 |
| 20260831140032 | 6 | 180 | 6.4 | 8.0 | 0.00 | 0.00 | 0.00 | 89 | 1015.8 |
| 20260831134607 | 6 | 180 | 6.4 | 8.0 | 0.00 | 0.00 | 0.00 | 89 | 1015.8 |
| 20260831133038 | 6 | 180 | 6.4 | 8.0 | 0.00 | 0.00 | 0.00 | 88 | 1015.8 |
| 20260831131532 | 6 | 180 | 6.4 | 6.4 | 0.00 | 0.00 | 0.00 | 88 | 1015.9 |
| 20260831130149 | 6 | 174 | 4.8 | 8.0 | 0.00 | 0.00 | 0.00 | 87 | 1015.9 |
| 20260831124536 | 6 | 180 | 4.8 | 8.0 | 0.00 | 0.00 | 0.00 | 87 | 1015.8 |
| 20260831123033 | 6 | 180 | 4.8 | 8.0 | 0.00 | 0.00 | 0.00 | 87 | 1015.8 |
| 20260831121606 | 6 | 180 | 4.8 | 6.4 | 0.00 | 0.00 | 0.00 | 86 | 1015.8 |
| 20260831114536 | 6 | 168 | 6.4 | 9.7 | 0.00 | 0.00 | 0.00 | 86 | 1015.9 |
| 20260831113034 | 7 | 163 | 6.4 | 9.7 | 0.00 | 0.00 | 0.00 | 85 | 1016.0 |
| 20260831111530 | 7 | 161 | 6.4 | 8.0 | 0.00 | 0.00 | 0.00 | 85 | 1016.0 |
| 20260831110035 | 7 | 158 | 6.4 | 8.0 | 0.00 | 0.00 | 0.00 | 85 | 1016.1 |
| 20260831104535 | 7 | 150 | 6.4 | 9.7 | 0.00 | 0.00 | 0.00 | 84 | 1016.0 |
| 20260831103034 | 7 | 146 | 6.4 | 12.9 | 0.00 | 0.00 | 0.00 | 84 | 1016.1 |
| 20260831101605 | 7 | 148 | 6.4 | 11.3 | 0.00 | 0.00 | 0.00 | 83 | 1016.2 |
| 20260831100034 | 7 | 172 | 6.4 | 8.0 | 0.00 | 0.00 | 0.00 | 83 | 1016.3 |
| 20260831094537 | 7 | 163 | 6.4 | 8.0 | 0.00 | 0.00 | 0.00 | 82 | 1016.5 |
| 20260831093029 | 8 | 165 | 4.8 | 8.0 | 0.00 | 0.00 | 0.00 | 81 | 1016.6 |
| 20260831091532 | 8 | 148 | 4.8 | 8.0 | 0.00 | 0.00 | 0.00 | 81 | 1016.6 |
| 20260831090034 | 8 | 156 | 6.4 | 14.5 | 0.00 | 0.00 | 0.00 | 80 | 1016.8 |
| 20260831084538 | 8 | 153 | 8.0 | 11.3 | 0.00 | 0.00 | 0.00 | 80 | 1016.8 |
| 20260831083036 | 9 | 154 | 6.4 | 12.9 | 0.00 | 0.00 | 0.00 | 79 | 1017.0 |
| 20260831080106 | 9 | 148 | 6.4 | 11.3 | 0.00 | 0.00 | 0.00 | 79 | 1017.2 |
| 20260831073035 | 10 | 140 | 6.4 | 9.7 | 0.00 | 0.00 | 0.00 | 77 | 1017.2 |
| 20260831071531 | 10 | 158 | 6.4 | 12.9 | 0.00 | 0.00 | 0.00 | 77 | 1017.3 |
| 20260831070032 | 10 | 161 | 8.0 | 12.9 | 0.00 | 0.00 | 0.00 | 77 | 1017.3 |
| 20260831063030 | 10 | 138 | 8.0 | 16.1 | 0.00 | 0.00 | 0.00 | 78 | 1017.5 |
| 20260831060151 | 10 | 170 | 8.0 | 12.9 | 0.00 | 0.00 | 0.00 | 77 | 1017.6 |
| 20260831054531 | 10 | 160 | 8.0 | 12.9 | 0.00 | 0.00 | 0.00 | 76 | 1017.8 |
| 20260831053035 | 10 | 155 | 8.0 | 12.9 | 0.00 | 0.00 | 0.00 | 76 | 1017.9 |
| 20260831051607 | 11 | 162 | 6.4 | 11.3 | 0.00 | 0.00 | 0.00 | 75 | 1018.0 |
| 20260831050030 | 11 | 164 | 8.0 | 12.9 | 0.00 | 0.00 | 0.00 | 75 | 1018.1 |
| 20260831044534 | 11 | 151 | 8.0 | 11.3 | 0.00 | 0.00 | 0.00 | 76 | 1018.2 |
| 20260831043030 | 11 | 147 | 6.4 | 12.9 | 0.00 | 0.00 | 0.00 | 76 | 1018.2 |
| 20260831041533 | 10 | 157 | 8.0 | 11.3 | 0.00 | 0.00 | 0.00 | 77 | 1018.3 |
| 20260831040034 | 10 | 154 | 6.4 | 9.7 | 0.00 | 0.00 | 0.00 | 77 | 1018.1 |
| 20260831034533 | 10 | 150 | 6.4 | 9.7 | 0.00 | 0.00 | 0.00 | 76 | 1018.1 |
| 20260831033034 | 11 | 136 | 4.8 | 6.4 | 0.00 | 0.00 | 0.00 | 75 | 1018.0 |